Theta_e
325 325 326 326 324 323 325 326 329 331 330 332 336 334 331 329 328 332 333 338 339 339 340 340 341 340 340 340 341 341 341 341 342 342 342 342 342 342 343 344 346 347 348 348
325 324 325 326 326 325 325 326 326 327 329 329 330 329 328 327 330 327 330 331 333 337 339 340 341 341 341 341 340 340 340 340 341 341 342 342 343 344 344 346 347 349 349 350
326 324 325 326 327 326 326 326 326 327 329 329 329 330 330 328 330 327 328 329 330 331 335 340 340 340 340 341 341 341 341 341 341 341 342 342 343 344 345 346 348 350 351 352
327 326 327 326 326 326 326 326 325 326 326 331 329 328 328 327 327 326 327 328 329 330 335 336 340 340 341 340 340 341 341 341 341 341 342 343 343 345 346 348 350 351 353 358
327 326 326 326 329 327 328 335 336 337 336 335 334 334 328 324 326 326 327 328 329 330 335 334 337 339 340 341 341 341 341 341 341 341 342 343 345 346 348 350 351 354 359 358
325 326 326 329 323 322 327 334 330 333 336 338 336 335 332 327 325 326 327 327 329 330 333 335 336 337 338 340 341 341 340 341 341 342 344 346 347 349 350 352 355 361 359 358
326 328 330 320 320 321 333 332 323 325 328 332 340 334 334 327 327 328 327 327 329 329 331 336 337 339 340 340 340 341 341 341 341 345 347 348 349 351 355 356 360 359 357 354
326 333 334 316 319 329 320 319 319 321 323 326 330 334 338 339 339 334 329 327 327 328 332 338 341 340 340 341 342 341 339 337 345 349 350 351 352 358 362 362 361 358 355 349
327 325 316 314 313 313 314 315 317 319 322 328 334 339 343 346 343 331 329 328 327 330 335 342 342 343 343 343 343 341 341 347 348 349 352 354 355 359 361 362 357 356 351 347
324 318 316 313 311 310 312 311 313 316 323 328 334 343 349 353 339 334 334 334 331 335 338 344 347 346 344 345 344 344 346 346 347 353 357 358 358 359 361 359 356 353 348 345
316 314 318 316 311 309 311 310 312 315 323 328 336 346 356 351 344 343 343 340 339 342 345 347 350 349 348 346 346 348 348 351 355 357 356 358 361 359 358 356 353 351 350 342
317 310 310 311 309 308 309 309 312 313 320 323 331 346 357 359 354 348 347 346 344 345 345 349 350 350 351 352 352 349 348 354 357 356 362 357 357 356 354 352 347 346 343 338
309 307 307 308 308 308 307 309 311 313 316 318 327 343 352 356 356 353 351 350 346 344 344 348 352 354 354 352 350 349 351 354 356 357 357 357 354 353 349 343 343 342 336 334
307 306 307 307 307 306 307 309 309 310 312 315 319 335 348 353 356 357 355 352 351 351 352 354 355 354 352 350 352 353 353 353 357 358 358 355 351 347 341 341 341 338 336 335
305 305 305 306 306 307 308 309 308 309 310 313 316 324 342 350 353 357 358 358 357 356 357 357 356 355 354 355 355 354 354 354 356 354 353 346 342 339 339 339 338 338 337 336
305 305 305 306 307 307 308 308 308 309 310 309 313 319 328 345 352 357 358 358 357 357 358 358 356 355 353 353 355 356 355 355 356 349 342 339 338 336 337 338 339 338 337 334
306 306 306 306 307 307 308 307 307 308 308 308 311 314 320 336 349 355 358 357 357 358 359 359 358 358 356 354 351 349 351 346 338 334 335 336 336 337 337 339 339 337 334 333
312 307 306 306 306 307 307 307 307 307 307 306 309 312 315 324 341 349 354 355 355 359 361 360 358 352 349 349 339 338 336 335 335 333 332 333 333 335 336 331 330 331 330 331
315 313 308 306 306 307 307 306 305 306 305 306 307 311 314 319 335 344 351 353 354 356 358 356 351 349 349 346 339 336 333 333 332 331 328 326 331 332 330 329 329 328 329 329
314 314 312 309 309 307 307 307 306 306 305 305 306 308 313 316 327 342 345 350 351 351 352 352 350 349 349 344 336 334 333 334 331 327 326 328 328 328 328 328 328 328 328 326
313 313 313 312 312 310 308 308 307 307 306 305 306 307 310 315 320 336 345 348 350 349 348 350 349 347 340 335 337 337 337 333 327 326 327 327 327 326 326 326 325 325 326 325
312 312 312 312 312 312 312 311 311 311 309 307 306 307 310 314 316 327 340 344 345 345 346 347 345 342 339 340 341 340 330 326 327 326 326 326 326 325 326 326 325 323 323 324
314 314 312 311 312 312 312 312 312 315 315 311 308 307 312 317 319 327 335 342 342 341 343 344 343 339 337 334 328 327 326 327 330 327 326 326 327 327 327 327 325 323 322 324
313 316 317 314 314 314 314 314 313 314 314 310 307 310 313 319 328 329 334 339 339 336 338 338 334 328 326 326 327 329 330 329 332 331 329 328 329 330 329 327 325 325 323 323
313 314 315 317 319 318 317 316 315 321 317 320 321 314 322 329 332 334 335 337 336 334 332 329 327 326 329 330 330 330 330 330 330 332 332 328 329 330 330 330 328 325 325 323
312 312 314 315 316 318 319 318 320 322 324 325 325 327 330 331 332 333 334 335 335 334 332 330 330 330 327 325 323 324 326 329 330 330 330 328 326 328 329 329 330 329 326 326
310 311 312 316 313 317 318 318 318 319 319 320 320 319 322 326 329 331 333 333 333 333 332 332 331 326 326 325 323 323 325 329 329 328 327 328 328 327 328 329 329 329 328 326
Wind_Speed
14 7 17 17 21 19 20 17 15 17 15 14 10 7 9 10 5 5 3 13 17 22 26 29 31 32 32 32 32 28 29 31 34 34 34 34 36 35 34 33 31 27 21 16
17 14 13 17 18 21 22 21 20 18 17 12 15 9 13 25 13 17 9 6 10 19 24 28 30 30 30 29 25 24 26 27 29 29 31 32 31 30 28 27 25 19 17 14
20 14 17 16 17 18 17 17 19 17 18 8 8 10 15 21 16 19 17 13 15 13 23 28 29 28 28 28 26 25 23 24 24 22 23 22 22 22 20 16 15 13 13 10
12 12 19 13 18 14 14 8 12 7 1 5 11 15 16 22 17 19 22 21 19 20 19 24 27 29 29 30 24 22 20 19 18 17 17 15 14 13 11 9 8 9 8 8
6 16 3 6 5 6 12 6 6 3 5 7 10 8 18 24 24 23 21 22 18 23 13 18 23 24 21 22 21 19 19 14 11 8 10 9 9 7 5 6 9 9 10 10
4 17 14 6 11 8 3 10 9 9 7 10 10 5 10 11 20 27 26 25 23 18 8 11 12 13 15 16 17 14 10 7 3 6 5 4 4 6 8 10 11 12 14 15
3 5 5 12 9 4 11 3 12 12 12 12 6 9 18 14 16 17 25 30 23 18 13 11 14 17 18 16 16 15 12 9 8 7 8 8 8 9 11 13 15 17 18 20
1 3 5 21 3 2 6 9 12 14 14 17 20 24 25 25 24 18 18 24 25 18 14 14 17 19 23 22 19 16 12 10 8 6 6 7 9 11 12 16 17 21 21 21
5 5 8 12 16 10 9 12 16 17 18 17 21 21 21 21 18 12 12 18 19 15 17 18 22 23 23 21 18 15 11 8 6 6 8 10 11 14 17 18 20 22 20 20
4 4 3 9 11 16 11 17 18 19 19 19 21 17 15 12 10 9 11 16 20 20 21 24 23 21 20 19 17 13 11 10 10 10 14 15 15 13 15 18 20 21 21 21
4 4 4 6 14 20 16 20 21 22 20 22 19 13 10 5 4 8 14 18 23 27 28 27 25 22 19 17 14 14 13 14 16 16 15 16 19 17 19 19 16 15 17 18
2 4 4 6 18 17 20 23 23 24 27 26 25 18 11 3 5 12 16 21 25 26 25 25 23 21 19 16 13 12 16 19 21 19 21 20 21 22 18 16 14 13 15 17
3 3 9 17 17 11 22 22 22 21 22 26 27 22 13 5 9 11 15 18 23 24 24 25 23 22 20 17 14 15 19 23 22 22 23 23 21 22 24 23 22 21 21 18
10 15 20 13 19 25 22 21 21 19 20 25 29 23 15 10 8 10 12 15 21 24 24 24 23 21 20 18 19 20 19 16 19 21 23 20 20 23 21 22 26 26 23 19
20 20 21 21 21 21 20 20 21 20 22 25 29 27 18 11 6 8 12 15 18 20 22 23 22 22 22 20 20 19 18 20 19 20 22 21 23 22 20 21 23 25 24 21
23 22 22 21 23 23 20 18 18 18 20 22 25 26 24 11 6 3 9 11 13 18 20 22 21 23 23 23 21 19 18 19 22 22 23 24 24 22 21 20 22 23 23 21
31 29 23 21 21 21 20 19 19 18 21 22 22 23 22 15 3 2 7 9 9 13 18 20 21 22 23 21 18 19 22 23 23 24 25 24 22 21 19 20 21 21 19 17
28 30 30 28 25 22 23 25 23 23 23 24 22 21 21 19 9 5 8 10 11 15 19 21 21 22 20 18 18 24 27 27 26 23 22 21 21 20 20 19 19 20 19 19
33 31 26 26 25 25 27 31 31 29 28 26 23 20 20 20 13 10 9 11 12 15 19 21 21 22 21 20 22 24 25 26 24 22 21 21 21 21 21 21 21 21 22 24
33 28 24 19 18 21 24 26 29 30 29 27 26 24 20 17 16 14 13 13 14 14 18 21 22 22 23 23 25 27 26 24 23 23 24 25 25 25 24 23 22 21 23 24
16 18 22 20 18 18 20 23 28 31 29 28 29 28 24 19 16 14 17 19 19 17 17 22 25 25 25 27 26 26 26 24 24 25 27 27 27 26 25 24 22 21 23 23
12 11 15 17 19 19 17 16 18 23 30 33 32 30 26 23 19 18 21 22 16 20 21 24 26 26 27 28 26 24 25 25 26 27 29 28 29 27 25 25 23 22 23 25
20 13 15 19 21 22 21 22 26 28 30 33 34 32 29 24 22 22 25 28 25 23 25 27 27 27 26 27 27 26 27 28 27 28 30 30 28 26 24 24 24 24 23 25
20 12 10 12 17 21 25 24 21 22 26 30 31 32 32 26 25 24 22 26 24 23 27 29 27 28 29 28 28 27 27 28 27 28 29 29 27 26 25 26 26 24 23 24
41 33 8 9 4 7 8 8 10 12 15 17 23 29 28 24 22 21 23 24 22 23 28 28 27 30 31 28 27 28 29 30 30 28 28 31 29 28 26 27 27 26 24 25
32 33 35 24 26 6 5 7 8 11 10 9 12 13 19 19 19 21 20 24 23 25 28 29 32 32 31 27 28 28 28 28 33 32 30 32 32 31 28 27 26 28 26 26
33 37 31 28 20 21 6 7 8 10 9 8 10 11 13 5 8 12 17 18 23 23 30 33 33 33 30 27 28 29 30 32 33 33 32 33 34 32 28 29 29 28 30 29
Wind_Direction
205 170 189 182 194 199 213 219 213 209 220 217 209 231 282 294 299 304 212 208 212 214 214 216 218 222 229 231 238 244 248 251 252 254 257 258 261 264 267 271 273 275 272 260
215 197 196 202 196 196 209 213 227 239 236 233 247 273 281 280 283 294 282 255 228 233 227 223 222 222 228 234 234 238 245 251 258 264 270 273 274 273 273 274 276 273 265 250
214 199 216 229 201 198 202 209 208 215 230 214 230 232 245 257 263 275 292 299 300 286 235 222 221 224 227 233 234 237 248 256 262 265 266 271 276 280 280 278 271 258 246 229
191 180 220 232 227 210 209 202 217 245 226 262 264 269 281 267 274 277 279 284 291 293 258 224 223 226 232 238 243 245 250 256 261 266 269 270 272 272 272 261 242 231 215 198
183 195 151 113 44 214 189 161 30 332 331 317 318 284 269 252 249 253 258 266 273 283 266 229 223 223 234 238 235 232 236 242 248 273 271 260 254 246 227 201 200 184 178 168
177 185 206 58 335 342 295 199 21 354 337 332 332 216 239 256 243 242 245 251 256 265 258 228 220 221 214 209 204 202 191 190 199 230 225 215 209 181 178 177 166 164 156 153
216 171 102 350 321 296 184 153 346 342 329 317 290 261 277 271 254 254 245 240 241 252 250 225 214 192 180 175 164 159 154 154 193 186 172 179 185 177 163 164 157 153 150 151
213 174 154 354 58 149 356 349 345 340 331 311 296 292 286 280 278 268 249 234 232 236 221 194 184 174 164 159 155 149 157 187 178 158 157 167 170 156 156 158 158 155 159 149
6 90 85 60 72 41 24 2 354 341 333 320 307 296 293 283 273 264 241 228 221 217 190 171 164 166 161 152 148 159 177 152 146 155 160 154 154 153 154 162 160 160 164 157
181 109 160 73 40 21 14 1 354 349 342 334 320 309 298 284 262 230 207 194 190 184 169 159 156 155 160 155 163 164 162 166 163 157 153 144 140 146 160 158 166 171 164 161
85 49 132 193 6 357 356 357 359 358 357 352 345 331 331 305 233 196 171 161 161 157 155 150 150 152 150 153 162 166 162 152 145 146 149 145 143 154 162 167 176 175 175 171
102 98 348 305 332 343 346 347 352 353 357 0 4 17 10 31 153 156 154 153 153 154 151 146 148 149 151 154 154 159 151 149 148 149 154 157 155 150 155 153 147 150 154 156
120 318 310 305 315 335 333 337 345 349 352 356 8 22 27 43 110 134 149 154 152 151 152 150 150 150 149 147 146 153 153 154 159 160 161 162 163 166 162 151 148 151 151 156
293 314 309 308 309 317 325 328 333 334 344 0 7 17 29 42 92 112 133 146 149 148 148 151 150 150 150 151 153 158 156 158 158 159 164 167 167 163 166 164 159 162 165 164
286 288 281 293 299 303 312 318 324 333 342 354 5 9 14 29 47 120 132 137 144 147 151 154 156 158 159 162 167 167 169 168 169 170 167 165 160 161 161 166 170 173 171 167
296 289 290 287 288 293 301 310 318 325 335 340 353 2 4 358 12 112 132 136 149 156 161 164 166 165 164 166 174 179 177 178 175 173 165 164 166 168 167 173 175 175 176 176
284 281 278 274 278 288 293 297 299 306 315 322 333 347 354 346 324 194 161 161 167 172 172 174 173 174 174 181 186 184 176 168 168 165 165 168 171 174 175 174 173 175 181 183
279 271 263 257 259 267 277 279 284 288 295 303 311 325 339 343 308 227 208 182 179 177 176 176 178 178 180 181 177 172 171 166 166 167 169 172 176 176 175 175 176 176 175 174
274 266 260 257 252 252 257 266 270 276 281 289 293 301 317 332 306 261 225 204 189 190 184 182 184 186 184 180 176 178 174 171 173 174 174 173 173 174 175 173 174 174 173 172
271 254 248 250 260 249 253 257 260 266 269 276 280 282 292 312 315 258 241 218 215 208 207 197 196 196 192 187 184 178 178 180 182 180 177 174 174 172 172 174 176 178 180 179
283 246 238 245 256 263 252 261 263 259 258 264 266 271 277 287 304 259 237 226 226 224 215 209 204 203 195 187 182 185 186 187 186 184 179 178 175 175 175 174 176 178 182 182
320 270 254 247 255 263 264 264 258 265 263 258 255 257 265 269 281 275 238 231 231 224 217 208 206 202 197 190 188 189 193 191 186 186 182 180 180 181 181 180 180 179 180 182
5 328 278 260 261 267 270 269 274 265 260 256 258 254 260 266 266 266 245 229 225 225 219 214 211 204 200 199 200 196 192 191 189 190 188 187 187 189 192 190 189 186 183 184
18 352 328 300 277 272 272 275 266 253 243 245 247 249 257 265 263 256 238 234 229 225 221 217 209 206 201 201 198 195 194 195 195 195 195 195 195 196 199 200 197 194 194 191
22 23 33 33 347 308 285 266 264 248 238 242 256 255 254 250 245 244 233 225 219 222 221 219 212 208 205 205 205 206 206 204 199 196 198 201 202 204 205 208 206 202 199 197
25 21 25 37 26 22 255 245 192 155 161 207 216 238 239 237 236 234 223 220 219 215 219 217 208 208 211 212 211 210 208 205 204 203 204 206 206 207 209 209 210 209 205 202
26 32 28 31 23 39 65 54 92 92 99 90 85 83 74 108 198 210 218 218 214 216 220 219 213 208 207 207 207 208 207 207 209 208 210 211 209 209 212 208 208 210 208 208